• In Spain
  • List of Countries
  • For 7 days
  • Water Temperature
  • Satellite Maps
  • Weather Map
  • Weather Widgets
  • user-avatar
    Login

    Hourly Weather Algiers

    Today, 22 October, Sunday

    Time Temperature Precipitation Wind Pressure Humidity
    00:00 +20°C° 0 mm 1 mps 754 mmHg 77%
    01:00 +20°C° 0 mm 1 mps 754 mmHg 77%
    02:00 +20°C° 0 mm 1 mps 753 mmHg 77%
    03:00 +20°C° 0 mm 1 mps 753 mmHg 76%
    04:00 +20°C° 0 mm 1 mps 753 mmHg 76%
    05:00 +19°C° 0 mm 1 mps 753 mmHg 76%
    06:00 +19°C° 0 mm 1 mps 754 mmHg 75%
    07:00 +21°C° 0 mm 1 mps 754 mmHg 67%
    08:00 +22°C° 0 mm 1 mps 754 mmHg 59%
    09:00 +24°C° 0 mm 1 mps 754 mmHg 51%
    10:00 +25°C° 0 mm 1 mps 754 mmHg 48%
    11:00 +26°C° 0 mm 1 mps 754 mmHg 44%
    12:00 +26°C° 0 mm 2 mps 754 mmHg 40%
    13:00 +26°C° 0 mm 2 mps 753 mmHg 42%
    14:00 +26°C° 0 mm 2 mps 753 mmHg 43%
    15:00 +26°C° 0 mm 3 mps 753 mmHg 45%
    16:00 +25°C° 0 mm 2 mps 753 mmHg 51%
    17:00 +24°C° 0 mm 2 mps 753 mmHg 58%
    18:00 +21°C° 0 mm 2 mps 754 mmHg 65%
    19:00 +21°C° 0.1 mm 2 mps 754 mmHg 69%
    20:00 +21°C° 0.1 mm 1 mps 754 mmHg 73%
    21:00 +21°C° 0.1 mm 1 mps 754 mmHg 76%
    22:00 +21°C° 0.1 mm 1 mps 754 mmHg 78%
    23:00 +20°C° 0.1 mm 1 mps 754 mmHg 80%

    Tomorrow, 23 October, Monday

    Time Temperature Precipitation Wind Pressure Humidity
    00:00 +20°C° 0.1 mm 1 mps 754 mmHg 81%
    01:00 +20°C° 0.2 mm 1 mps 754 mmHg 82%
    02:00 +20°C° 0.2 mm 1 mps 754 mmHg 82%
    03:00 +18°C° 0.2 mm 2 mps 754 mmHg 83%
    04:00 +18°C° 0.2 mm 2 mps 754 mmHg 84%
    05:00 +18°C° 0.2 mm 2 mps 754 mmHg 85%
    06:00 +18°C° 0.2 mm 3 mps 754 mmHg 86%
    07:00 +19°C° 0.2 mm 3 mps 754 mmHg 82%
    08:00 +20°C° 0.2 mm 3 mps 754 mmHg 78%
    09:00 +21°C° 0.2 mm 4 mps 755 mmHg 74%
    10:00 +22°C° 0.1 mm 4 mps 755 mmHg 71%
    11:00 +22°C° 0.1 mm 4 mps 754 mmHg 68%
    12:00 +23°C° 0.1 mm 4 mps 754 mmHg 65%
    13:00 +23°C° 0 mm 4 mps 754 mmHg 64%
    14:00 +23°C° 0 mm 4 mps 754 mmHg 62%
    15:00 +23°C° 0 mm 4 mps 754 mmHg 60%
    16:00 +21°C° 0 mm 4 mps 754 mmHg 64%
    17:00 +20°C° 0 mm 3 mps 754 mmHg 67%
    18:00 +19°C° 0 mm 3 mps 754 mmHg 70%
    19:00 +19°C° 0 mm 2 mps 754 mmHg 72%
    20:00 +18°C° 0 mm 2 mps 754 mmHg 73%
    21:00 +18°C° 0 mm 2 mps 755 mmHg 75%
    22:00 +18°C° 0 mm 2 mps 755 mmHg 75%
    23:00 +18°C° 0 mm 1 mps 754 mmHg 76%

    Day after tomorrow, 24 October, Tuesday

    Time Temperature Precipitation Wind Pressure Humidity
    00:00 +18°C° 0 mm 1 mps 754 mmHg 77%
    01:00 +18°C° 0 mm 1 mps 754 mmHg 76%
    02:00 +16°C° 0 mm 1 mps 754 mmHg 76%
    03:00 +16°C° 0 mm 1 mps 754 mmHg 75%
    04:00 +16°C° 0 mm 1 mps 754 mmHg 75%
    05:00 +16°C° 0 mm 1 mps 754 mmHg 74%
    06:00 +16°C° 0 mm 1 mps 754 mmHg 73%
    07:00 +17°C° 0 mm 2 mps 754 mmHg 66%
    08:00 +19°C° 0 mm 2 mps 755 mmHg 59%
    09:00 +21°C° 0 mm 2 mps 755 mmHg 51%
    10:00 +23°C° 0 mm 2 mps 755 mmHg 46%
    11:00 +24°C° 0 mm 2 mps 754 mmHg 41%
    12:00 +25°C° 0 mm 2 mps 754 mmHg 36%
    13:00 +25°C° 0 mm 2 mps 754 mmHg 38%
    14:00 +25°C° 0 mm 2 mps 754 mmHg 39%
    15:00 +25°C° 0 mm 3 mps 753 mmHg 40%
    16:00 +24°C° 0 mm 3 mps 754 mmHg 47%
    17:00 +22°C° 0 mm 3 mps 754 mmHg 54%
    18:00 +20°C° 0 mm 2 mps 754 mmHg 61%
    19:00 +20°C° 0 mm 2 mps 754 mmHg 64%
    20:00 +19°C° 0 mm 2 mps 754 mmHg 67%
    21:00 +19°C° 0 mm 2 mps 755 mmHg 70%
    22:00 +18°C° 0 mm 2 mps 755 mmHg 69%
    23:00 +18°C° 0 mm 2 mps 755 mmHg 68%

    25 October, Wednesday

    Time Temperature Precipitation Wind Pressure Humidity
    00:00 +18°C° 0 mm 2 mps 755 mmHg 67%
    01:00 +18°C° 0 mm 2 mps 754 mmHg 66%
    02:00 +18°C° 0 mm 2 mps 754 mmHg 65%
    03:00 +17°C° 0 mm 2 mps 754 mmHg 64%
    04:00 +17°C° 0 mm 2 mps 754 mmHg 65%
    05:00 +17°C° 0 mm 2 mps 754 mmHg 66%
    06:00 +17°C° 0 mm 2 mps 755 mmHg 67%
    07:00 +18°C° 0 mm 3 mps 755 mmHg 62%
    08:00 +20°C° 0 mm 3 mps 755 mmHg 57%
    09:00 +21°C° 0 mm 3 mps 756 mmHg 52%
    10:00 +24°C° 0 mm 3 mps 755 mmHg 47%
    11:00 +25°C° 0 mm 3 mps 755 mmHg 42%
    12:00 +26°C° 0 mm 3 mps 755 mmHg 38%
    13:00 +26°C° 0 mm 3 mps 755 mmHg 38%
    14:00 +27°C° 0 mm 4 mps 755 mmHg 39%
    15:00 +27°C° 0 mm 4 mps 754 mmHg 39%
    16:00 +25°C° 0 mm 4 mps 755 mmHg 47%
    17:00 +23°C° 0 mm 4 mps 755 mmHg 56%
    18:00 +21°C° 0 mm 4 mps 755 mmHg 64%
    19:00 +21°C° 0 mm 4 mps 755 mmHg 64%
    20:00 +21°C° 0 mm 3 mps 756 mmHg 64%
    21:00 +20°C° 0 mm 3 mps 756 mmHg 64%
    22:00 +20°C° 0 mm 3 mps 756 mmHg 60%
    23:00 +20°C° 0 mm 3 mps 756 mmHg 57%

    26 October, Thursday

    Time Temperature Precipitation Wind Pressure Humidity
    00:00 +20°C° 0 mm 3 mps 756 mmHg 54%
    01:00 +20°C° 0 mm 3 mps 756 mmHg 51%
    02:00 +20°C° 0 mm 3 mps 756 mmHg 48%
    03:00 +20°C° 0 mm 3 mps 755 mmHg 45%
    04:00 +19°C° 0 mm 3 mps 756 mmHg 43%
    05:00 +19°C° 0 mm 3 mps 756 mmHg 41%
    06:00 +19°C° 0 mm 3 mps 756 mmHg 39%
    07:00 +21°C° 0 mm 3 mps 756 mmHg 34%
    08:00 +24°C° 0 mm 3 mps 757 mmHg 30%
    09:00 +26°C° 0 mm 3 mps 757 mmHg 26%
    10:00 +28°C° 0 mm 3 mps 757 mmHg 24%
    11:00 +29°C° 0 mm 2 mps 756 mmHg 21%
    12:00 +30°C° 0 mm 2 mps 756 mmHg 19%
    13:00 +30°C° 0 mm 3 mps 756 mmHg 21%
    14:00 +30°C° 0 mm 3 mps 756 mmHg 22%
    15:00 +30°C° 0 mm 4 mps 755 mmHg 23%
    16:00 +28°C° 0 mm 4 mps 755 mmHg 30%
    17:00 +26°C° 0 mm 3 mps 756 mmHg 37%
    18:00 +24°C° 0 mm 3 mps 756 mmHg 44%
    19:00 +24°C° 0 mm 3 mps 756 mmHg 43%
    20:00 +24°C° 0 mm 3 mps 756 mmHg 42%
    21:00 +23°C° 0 mm 2 mps 757 mmHg 41%
    22:00 +23°C° 0 mm 2 mps 756 mmHg 38%
    23:00 +23°C° 0 mm 2 mps 756 mmHg 36%

    27 October, Friday

    Time Temperature Precipitation Wind Pressure Humidity
    00:00 +23°C° 0 mm 2 mps 756 mmHg 34%
    01:00 +23°C° 0 mm 2 mps 756 mmHg 33%
    02:00 +21°C° 0 mm 2 mps 756 mmHg 31%
    03:00 +21°C° 0 mm 2 mps 755 mmHg 30%
    04:00 +21°C° 0 mm 2 mps 756 mmHg 29%
    05:00 +21°C° 0 mm 2 mps 756 mmHg 28%
    06:00 +21°C° 0 mm 2 mps 756 mmHg 27%
    07:00 +24°C° 0 mm 2 mps 756 mmHg 25%
    08:00 +26°C° 0 mm 1 mps 756 mmHg 22%
    09:00 +28°C° 0 mm 1 mps 756 mmHg 20%
    10:00 +29°C° 0 mm 2 mps 756 mmHg 19%
    11:00 +30°C° 0 mm 2 mps 756 mmHg 18%
    12:00 +31°C° 0 mm 2 mps 755 mmHg 18%
    13:00 +30°C° 0 mm 2 mps 755 mmHg 20%
    14:00 +30°C° 0 mm 3 mps 755 mmHg 22%
    15:00 +30°C° 0 mm 3 mps 755 mmHg 24%
    16:00 +28°C° 0 mm 2 mps 755 mmHg 31%
    17:00 +26°C° 0 mm 2 mps 755 mmHg 38%
    18:00 +24°C° 0 mm 2 mps 755 mmHg 46%
    19:00 +23°C° 0 mm 1 mps 755 mmHg 47%
    20:00 +23°C° 0 mm 1 mps 755 mmHg 47%
    21:00 +22°C° 0 mm 1 mps 755 mmHg 48%
    22:00 +22°C° 0 mm 1 mps 754 mmHg 46%
    23:00 +22°C° 0 mm 1 mps 754 mmHg 44%
    Show more